When you browse on this site, cookies collect data to enhance your experience and personalize the content and advertising you see.
Visit our Privacy Policy to learn more. By continuing to use the site, you agree to this use of cookies and data.
  • En España
  • Lista de países
  • Para 7 días
  • Temperatura del agua
  • Mapa Satelital
  • El tiempo en el mapa
  • Informadores
  • user-avatar
    Iniciar sesión

    Tiempo cada hora Kossuli

    Hoy, 24 Mayo, Viernes

    Tiempo Temperatura Precipitaciones Viento Presión Humedad
    00:00 +5°C° 0 mm 2 mps 745 mmHg 87%
    01:00 +4°C° 0 mm 2 mps 745 mmHg 86%
    02:00 +4°C° 0 mm 1 mps 745 mmHg 84%
    03:00 +3°C° 0 mm 2 mps 746 mmHg 79%
    04:00 +4°C° 0 mm 2 mps 746 mmHg 74%
    05:00 +4°C° 0 mm 2 mps 746 mmHg 68%
    06:00 +5°C° 0 mm 3 mps 746 mmHg 63%
    07:00 +8°C° 0 mm 3 mps 747 mmHg 57%
    08:00 +10°C° 0 mm 3 mps 747 mmHg 51%
    09:00 +11°C° 0 mm 3 mps 747 mmHg 49%
    10:00 +12°C° 0 mm 3 mps 747 mmHg 47%
    11:00 +13°C° 0 mm 3 mps 747 mmHg 44%
    12:00 +13°C° 0 mm 3 mps 746 mmHg 44%
    13:00 +14°C° 0 mm 3 mps 746 mmHg 43%
    14:00 +16°C° 0 mm 3 mps 746 mmHg 43%
    15:00 +16°C° 0 mm 3 mps 746 mmHg 45%
    16:00 +16°C° 0 mm 3 mps 746 mmHg 47%
    17:00 +16°C° 0 mm 3 mps 745 mmHg 50%
    18:00 +13°C° 0 mm 3 mps 745 mmHg 57%
    19:00 +12°C° 0 mm 2 mps 745 mmHg 65%
    20:00 +9°C° 0 mm 2 mps 745 mmHg 72%
    21:00 +9°C° 0 mm 3 mps 745 mmHg 72%
    22:00 +9°C° 0 mm 3 mps 745 mmHg 71%
    23:00 +8°C° 0 mm 3 mps 745 mmHg 71%

    Mañana, 25 Mayo, Sábado

    Tiempo Temperatura Precipitaciones Viento Presión Humedad
    00:00 +8°C° 0 mm 3 mps 745 mmHg 73%
    01:00 +8°C° 0 mm 3 mps 745 mmHg 76%
    02:00 +8°C° 0 mm 3 mps 745 mmHg 79%
    03:00 +8°C° 0 mm 3 mps 744 mmHg 82%
    04:00 +9°C° 0 mm 3 mps 744 mmHg 84%
    05:00 +8°C° 0 mm 4 mps 744 mmHg 86%
    06:00 +11°C° 0 mm 4 mps 744 mmHg 81%
    07:00 +13°C° 0 mm 4 mps 743 mmHg 76%
    08:00 +15°C° 0 mm 4 mps 743 mmHg 72%
    09:00 +15°C° 0 mm 4 mps 743 mmHg 71%
    10:00 +17°C° 0 mm 4 mps 742 mmHg 70%
    11:00 +18°C° 0 mm 4 mps 742 mmHg 69%
    12:00 +17°C° 0.3 mm 4 mps 741 mmHg 77%
    13:00 +14°C° 0.3 mm 4 mps 741 mmHg 85%
    14:00 +13°C° 0.3 mm 3 mps 740 mmHg 93%
    15:00 +13°C° 0.6 mm 3 mps 740 mmHg 94%
    16:00 +15°C° 0.6 mm 2 mps 739 mmHg 95%
    17:00 +15°C° 0.6 mm 2 mps 739 mmHg 95%
    18:00 +15°C° 0.5 mm 2 mps 738 mmHg 96%
    19:00 +14°C° 0.5 mm 2 mps 738 mmHg 97%
    20:00 +14°C° 0.5 mm 1 mps 737 mmHg 98%
    21:00 +14°C° 1.4 mm 2 mps 737 mmHg 97%
    22:00 +15°C° 1.4 mm 2 mps 737 mmHg 97%
    23:00 +14°C° 1.4 mm 3 mps 737 mmHg 97%

    Pasado mañana, 26 Mayo, Domingo

    Tiempo Temperatura Precipitaciones Viento Presión Humedad
    00:00 +14°C° 0.2 mm 2 mps 737 mmHg 97%
    01:00 +13°C° 0.2 mm 2 mps 737 mmHg 97%
    02:00 +12°C° 0.2 mm 2 mps 737 mmHg 98%
    03:00 +12°C° 0 mm 2 mps 737 mmHg 97%
    04:00 +12°C° 0 mm 2 mps 737 mmHg 96%
    05:00 +12°C° 0 mm 2 mps 738 mmHg 95%
    06:00 +13°C° 0 mm 2 mps 738 mmHg 88%
    07:00 +14°C° 0 mm 2 mps 738 mmHg 81%
    08:00 +16°C° 0 mm 3 mps 739 mmHg 74%
    09:00 +17°C° 0 mm 3 mps 739 mmHg 67%
    10:00 +18°C° 0 mm 3 mps 739 mmHg 60%
    11:00 +19°C° 0 mm 3 mps 739 mmHg 53%
    12:00 +19°C° 0 mm 3 mps 739 mmHg 52%
    13:00 +19°C° 0 mm 3 mps 739 mmHg 52%
    14:00 +19°C° 0 mm 3 mps 739 mmHg 51%
    15:00 +19°C° 0 mm 3 mps 738 mmHg 53%
    16:00 +19°C° 0 mm 2 mps 738 mmHg 54%
    17:00 +18°C° 0 mm 2 mps 738 mmHg 55%
    18:00 +16°C° 0 mm 1 mps 738 mmHg 64%
    19:00 +14°C° 0 mm 1 mps 738 mmHg 72%
    20:00 +11°C° 0 mm 0 mps 738 mmHg 80%
    21:00 +10°C° 0 mm 0 mps 738 mmHg 81%
    22:00 +11°C° 0 mm 1 mps 738 mmHg 82%
    23:00 +11°C° 0 mm 1 mps 737 mmHg 83%

    27 Mayo, Lunes

    Tiempo Temperatura Precipitaciones Viento Presión Humedad
    00:00 +10°C° 0 mm 2 mps 737 mmHg 83%
    01:00 +10°C° 0 mm 2 mps 737 mmHg 83%
    02:00 +10°C° 0 mm 2 mps 737 mmHg 83%
    03:00 +10°C° 0.2 mm 3 mps 737 mmHg 87%
    04:00 +10°C° 0.2 mm 3 mps 737 mmHg 90%
    05:00 +10°C° 0.2 mm 3 mps 738 mmHg 94%
    06:00 +11°C° 0.1 mm 4 mps 738 mmHg 86%
    07:00 +11°C° 0.1 mm 4 mps 739 mmHg 79%
    08:00 +12°C° 0.1 mm 5 mps 739 mmHg 72%
    09:00 +13°C° 0 mm 5 mps 739 mmHg 66%
    10:00 +14°C° 0 mm 5 mps 740 mmHg 60%
    11:00 +15°C° 0 mm 5 mps 740 mmHg 54%
    12:00 +14°C° 0 mm 5 mps 741 mmHg 55%
    13:00 +14°C° 0 mm 5 mps 741 mmHg 57%
    14:00 +14°C° 0 mm 5 mps 742 mmHg 58%
    15:00 +14°C° 0 mm 4 mps 742 mmHg 57%
    16:00 +14°C° 0 mm 4 mps 742 mmHg 56%
    17:00 +15°C° 0 mm 4 mps 742 mmHg 56%
    18:00 +13°C° 0 mm 3 mps 743 mmHg 63%
    19:00 +13°C° 0 mm 2 mps 743 mmHg 71%
    20:00 +11°C° 0 mm 1 mps 743 mmHg 79%
    21:00 +11°C° 0 mm 1 mps 743 mmHg 81%
    22:00 +9°C° 0 mm 2 mps 743 mmHg 83%
    23:00 +9°C° 0 mm 2 mps 743 mmHg 86%

    28 Mayo, Martes

    Tiempo Temperatura Precipitaciones Viento Presión Humedad
    00:00 +10°C° 0.2 mm 3 mps 743 mmHg 87%
    01:00 +11°C° 0.2 mm 3 mps 743 mmHg 89%
    02:00 +11°C° 0.2 mm 3 mps 743 mmHg 91%
    03:00 +12°C° 0.9 mm 3 mps 742 mmHg 91%
    04:00 +13°C° 0.9 mm 4 mps 742 mmHg 92%
    05:00 +13°C° 0.9 mm 4 mps 742 mmHg 93%
    06:00 +14°C° 0.1 mm 4 mps 743 mmHg 89%
    07:00 +17°C° 0.1 mm 4 mps 743 mmHg 86%
    08:00 +18°C° 0.1 mm 4 mps 743 mmHg 83%
    09:00 +19°C° 0.3 mm 4 mps 743 mmHg 80%
    10:00 +20°C° 0.3 mm 4 mps 744 mmHg 76%
    11:00 +20°C° 0.3 mm 4 mps 744 mmHg 73%
    12:00 +21°C° 0.1 mm 4 mps 744 mmHg 68%
    13:00 +22°C° 0.1 mm 4 mps 744 mmHg 63%
    14:00 +23°C° 0.1 mm 4 mps 744 mmHg 58%
    15:00 +22°C° 0 mm 3 mps 745 mmHg 61%
    16:00 +23°C° 0 mm 2 mps 745 mmHg 64%
    17:00 +23°C° 0 mm 1 mps 745 mmHg 68%
    18:00 +22°C° 0.1 mm 1 mps 745 mmHg 74%
    19:00 +20°C° 0.1 mm 1 mps 745 mmHg 80%
    20:00 +19°C° 0.1 mm 1 mps 745 mmHg 87%
    21:00 +18°C° 0.2 mm 1 mps 745 mmHg 90%
    22:00 +18°C° 0.2 mm 1 mps 746 mmHg 92%
    23:00 +18°C° 0.2 mm 1 mps 746 mmHg 95%

    29 Mayo, Miércoles

    Tiempo Temperatura Precipitaciones Viento Presión Humedad
    00:00 +16°C° 0.1 mm 1 mps 745 mmHg 96%
    01:00 +16°C° 0.1 mm 1 mps 745 mmHg 97%
    02:00 +16°C° 0.1 mm 1 mps 745 mmHg 98%
    03:00 +16°C° 0 mm 2 mps 745 mmHg 97%
    04:00 +17°C° 0 mm 3 mps 745 mmHg 97%
    05:00 +17°C° 0 mm 3 mps 745 mmHg 96%
    06:00 +18°C° 0 mm 3 mps 745 mmHg 92%
    07:00 +20°C° 0 mm 3 mps 745 mmHg 88%
    08:00 +21°C° 0 mm 4 mps 745 mmHg 85%
    09:00 +23°C° 0 mm 4 mps 744 mmHg 75%
    10:00 +26°C° 0 mm 5 mps 744 mmHg 66%
    11:00 +28°C° 0 mm 5 mps 744 mmHg 57%
    12:00 +28°C° 0 mm 5 mps 744 mmHg 54%
    13:00 +29°C° 0 mm 5 mps 743 mmHg 52%
    14:00 +29°C° 0 mm 5 mps 743 mmHg 49%
    15:00 +28°C° 0 mm 5 mps 743 mmHg 51%
    16:00 +28°C° 0 mm 4 mps 742 mmHg 54%
    17:00 +27°C° 0 mm 4 mps 742 mmHg 56%
    18:00 +26°C° 0.3 mm 4 mps 742 mmHg 64%
    19:00 +23°C° 0.3 mm 4 mps 742 mmHg 72%
    20:00 +21°C° 0.3 mm 4 mps 742 mmHg 80%
    21:00 +20°C° 0.6 mm 3 mps 742 mmHg 84%
    22:00 +19°C° 0.6 mm 3 mps 742 mmHg 89%
    23:00 +19°C° 0.6 mm 3 mps 742 mmHg 93%
    Mostrar más